• In Czech Republic
  • List of Countries
  • For 7 days
  • Water Temperature
  • Satellite Maps
  • Weather Map
  • Weather Widgets
  • user-avatar
    Login

    Hourly Weather Greenock

    Today, 18 November, Saturday

    Time Temperature Precipitation Wind Pressure Humidity
    00:00 +5°C° 0.1 mm 8 mps 751 mmHg 75%
    01:00 +5°C° 0.1 mm 8 mps 751 mmHg 76%
    02:00 +4°C° 0.1 mm 8 mps 751 mmHg 76%
    03:00 +4°C° 0.1 mm 8 mps 751 mmHg 76%
    04:00 +4°C° 0 mm 7 mps 751 mmHg 76%
    05:00 +3°C° 0 mm 7 mps 751 mmHg 76%
    06:00 +3°C° 0 mm 6 mps 751 mmHg 75%
    07:00 +2°C° 0 mm 6 mps 751 mmHg 76%
    08:00 +2°C° 0 mm 5 mps 752 mmHg 76%
    09:00 +2°C° 0 mm 5 mps 752 mmHg 76%
    10:00 +3°C° 0 mm 5 mps 752 mmHg 72%
    11:00 +3°C° 0 mm 5 mps 752 mmHg 69%
    12:00 +4°C° 0 mm 6 mps 753 mmHg 65%
    13:00 +5°C° 0 mm 5 mps 753 mmHg 66%
    14:00 +3°C° 0 mm 5 mps 753 mmHg 67%
    15:00 +3°C° 0 mm 5 mps 753 mmHg 68%
    16:00 +3°C° 0 mm 4 mps 753 mmHg 71%
    17:00 +3°C° 0 mm 4 mps 753 mmHg 73%
    18:00 +1°C° 0 mm 4 mps 753 mmHg 75%
    19:00 +1°C° 0 mm 4 mps 753 mmHg 76%
    20:00 +2°C° 0 mm 3 mps 753 mmHg 77%
    21:00 +1°C° 0 mm 3 mps 753 mmHg 78%
    22:00 +1°C° 0 mm 3 mps 754 mmHg 79%
    23:00 +1°C° 0 mm 3 mps 754 mmHg 80%

    Tomorrow, 19 November, Sunday

    Time Temperature Precipitation Wind Pressure Humidity
    00:00 +1°C° 0 mm 3 mps 754 mmHg 82%
    01:00 +2°C° 0 mm 2 mps 754 mmHg 83%
    02:00 +2°C° 0 mm 2 mps 754 mmHg 85%
    03:00 +2°C° 0 mm 2 mps 754 mmHg 86%
    04:00 +3°C° 0 mm 1 mps 754 mmHg 87%
    05:00 +3°C° 0 mm 1 mps 754 mmHg 87%
    06:00 +3°C° 0 mm 1 mps 754 mmHg 88%
    07:00 +4°C° 0 mm 1 mps 754 mmHg 86%
    08:00 +4°C° 0 mm 1 mps 754 mmHg 85%
    09:00 +4°C° 0 mm 1 mps 754 mmHg 84%
    10:00 +5°C° 0 mm 1 mps 754 mmHg 83%
    11:00 +4°C° 0 mm 2 mps 753 mmHg 81%
    12:00 +5°C° 0 mm 2 mps 753 mmHg 79%
    13:00 +4°C° 0.1 mm 3 mps 753 mmHg 81%
    14:00 +4°C° 0.1 mm 3 mps 752 mmHg 83%
    15:00 +4°C° 0.1 mm 3 mps 751 mmHg 85%
    16:00 +4°C° 0.2 mm 3 mps 751 mmHg 87%
    17:00 +4°C° 0.2 mm 3 mps 750 mmHg 90%
    18:00 +4°C° 0.2 mm 3 mps 749 mmHg 92%
    19:00 +4°C° 1 mm 4 mps 748 mmHg 93%
    20:00 +4°C° 1 mm 4 mps 747 mmHg 94%
    21:00 +5°C° 1 mm 4 mps 746 mmHg 96%
    22:00 +5°C° 1.8 mm 4 mps 745 mmHg 96%
    23:00 +6°C° 1.8 mm 4 mps 744 mmHg 96%

    Day after tomorrow, 20 November, Monday

    Time Temperature Precipitation Wind Pressure Humidity
    00:00 +6°C° 1.8 mm 4 mps 743 mmHg 96%
    01:00 +7°C° 1.5 mm 5 mps 742 mmHg 96%
    02:00 +8°C° 1.5 mm 5 mps 742 mmHg 95%
    03:00 +9°C° 1.5 mm 6 mps 741 mmHg 94%
    04:00 +9°C° 0.8 mm 6 mps 740 mmHg 94%
    05:00 +9°C° 0.8 mm 6 mps 740 mmHg 94%
    06:00 +9°C° 0.8 mm 6 mps 739 mmHg 94%
    07:00 +9°C° 1.2 mm 6 mps 739 mmHg 94%
    08:00 +9°C° 1.2 mm 6 mps 739 mmHg 94%
    09:00 +9°C° 1.2 mm 6 mps 738 mmHg 94%
    10:00 +9°C° 0.5 mm 5 mps 739 mmHg 94%
    11:00 +9°C° 0.5 mm 5 mps 739 mmHg 94%
    12:00 +9°C° 0.5 mm 5 mps 740 mmHg 93%
    13:00 +10°C° 0.1 mm 4 mps 740 mmHg 94%
    14:00 +10°C° 0.1 mm 4 mps 741 mmHg 95%
    15:00 +10°C° 0.1 mm 3 mps 741 mmHg 95%
    16:00 +9°C° 0.1 mm 3 mps 742 mmHg 96%
    17:00 +9°C° 0.1 mm 3 mps 742 mmHg 96%
    18:00 +9°C° 0.1 mm 2 mps 742 mmHg 97%
    19:00 +8°C° 0.2 mm 2 mps 743 mmHg 97%
    20:00 +8°C° 0.2 mm 2 mps 743 mmHg 96%
    21:00 +8°C° 0.2 mm 2 mps 743 mmHg 96%
    22:00 +8°C° 0.1 mm 2 mps 743 mmHg 96%
    23:00 +8°C° 0.1 mm 2 mps 743 mmHg 96%

    21 November, Tuesday

    Time Temperature Precipitation Wind Pressure Humidity
    00:00 +8°C° 0.1 mm 2 mps 743 mmHg 96%
    01:00 +8°C° 0.6 mm 2 mps 742 mmHg 96%
    02:00 +8°C° 0.6 mm 2 mps 742 mmHg 97%
    03:00 +8°C° 0.6 mm 2 mps 741 mmHg 97%
    04:00 +8°C° 2 mm 2 mps 741 mmHg 97%
    05:00 +9°C° 2 mm 1 mps 740 mmHg 97%
    06:00 +9°C° 2 mm 1 mps 740 mmHg 97%
    07:00 +9°C° 0.9 mm 1 mps 740 mmHg 97%
    08:00 +9°C° 0.9 mm 1 mps 740 mmHg 97%
    09:00 +7°C° 0.9 mm 2 mps 740 mmHg 96%
    10:00 +8°C° 0.1 mm 2 mps 740 mmHg 94%
    11:00 +8°C° 0.1 mm 2 mps 740 mmHg 92%
    12:00 +8°C° 0.1 mm 2 mps 741 mmHg 90%
    13:00 +8°C° 0 mm 2 mps 741 mmHg 90%
    14:00 +7°C° 0 mm 2 mps 741 mmHg 90%
    15:00 +7°C° 0 mm 2 mps 741 mmHg 90%
    16:00 +7°C° 0.1 mm 3 mps 741 mmHg 90%
    17:00 +5°C° 0.1 mm 3 mps 741 mmHg 90%
    18:00 +5°C° 0.1 mm 4 mps 741 mmHg 90%
    19:00 +5°C° 1.4 mm 5 mps 740 mmHg 91%
    20:00 +3°C° 1.4 mm 5 mps 740 mmHg 91%
    21:00 +3°C° 1.4 mm 6 mps 739 mmHg 92%
    22:00 +3°C° 3.7 mm 6 mps 738 mmHg 92%
    23:00 +3°C° 3.7 mm 6 mps 738 mmHg 93%

    22 November, Wednesday

    Time Temperature Precipitation Wind Pressure Humidity
    00:00 +3°C° 3.7 mm 6 mps 737 mmHg 94%
    01:00 +4°C° 3.8 mm 6 mps 736 mmHg 94%
    02:00 +4°C° 3.8 mm 6 mps 735 mmHg 95%
    03:00 +5°C° 3.8 mm 6 mps 734 mmHg 96%
    04:00 +6°C° 3.4 mm 5 mps 733 mmHg 96%
    05:00 +6°C° 3.4 mm 5 mps 733 mmHg 96%
    06:00 +7°C° 3.4 mm 4 mps 732 mmHg 96%
    07:00 +7°C° 2.4 mm 4 mps 732 mmHg 96%
    08:00 +7°C° 2.4 mm 4 mps 732 mmHg 96%
    09:00 +7°C° 2.4 mm 4 mps 732 mmHg 96%
    10:00 +7°C° 1.7 mm 4 mps 732 mmHg 95%
    11:00 +7°C° 1.7 mm 4 mps 732 mmHg 95%
    12:00 +8°C° 1.7 mm 4 mps 732 mmHg 94%
    13:00 +8°C° 1.5 mm 5 mps 731 mmHg 94%
    14:00 +9°C° 1.5 mm 6 mps 730 mmHg 94%
    15:00 +9°C° 1.5 mm 6 mps 729 mmHg 93%
    16:00 +9°C° 0.8 mm 7 mps 728 mmHg 92%
    17:00 +10°C° 0.8 mm 8 mps 727 mmHg 91%
    18:00 +10°C° 0.8 mm 9 mps 726 mmHg 89%
    19:00 +10°C° 1 mm 9 mps 725 mmHg 89%
    20:00 +9°C° 1 mm 10 mps 724 mmHg 88%
    21:00 +9°C° 1 mm 10 mps 723 mmHg 87%
    22:00 +9°C° 1 mm 10 mps 722 mmHg 88%
    23:00 +10°C° 1 mm 9 mps 722 mmHg 89%

    23 November, Thursday

    Time Temperature Precipitation Wind Pressure Humidity
    00:00 +10°C° 1 mm 8 mps 721 mmHg 90%
    01:00 +10°C° 1.5 mm 8 mps 720 mmHg 91%
    02:00 +10°C° 1.5 mm 7 mps 719 mmHg 92%
    03:00 +10°C° 1.5 mm 7 mps 719 mmHg 93%
    04:00 +10°C° 1.1 mm 7 mps 718 mmHg 93%
    05:00 +10°C° 1.1 mm 6 mps 718 mmHg 93%
    06:00 +10°C° 1.1 mm 6 mps 718 mmHg 93%
    07:00 +9°C° 0.3 mm 7 mps 719 mmHg 91%
    08:00 +9°C° 0.3 mm 7 mps 719 mmHg 90%
    09:00 +9°C° 0.3 mm 8 mps 720 mmHg 89%
    10:00 +9°C° 0.1 mm 7 mps 721 mmHg 89%
    11:00 +9°C° 0.1 mm 7 mps 723 mmHg 89%
    12:00 +8°C° 0.1 mm 7 mps 724 mmHg 88%
    13:00 +8°C° 0 mm 7 mps 725 mmHg 88%
    14:00 +8°C° 0 mm 6 mps 726 mmHg 87%
    15:00 +8°C° 0 mm 6 mps 728 mmHg 87%
    16:00 +7°C° 0 mm 5 mps 729 mmHg 87%
    17:00 +7°C° 0 mm 4 mps 730 mmHg 87%
    18:00 +7°C° 0 mm 3 mps 731 mmHg 87%
    19:00 +7°C° 0 mm 2 mps 731 mmHg 87%
    20:00 +7°C° 0 mm 2 mps 732 mmHg 87%
    21:00 +8°C° 0 mm 1 mps 732 mmHg 87%
    22:00 +7°C° 0.2 mm 2 mps 732 mmHg 88%
    23:00 +7°C° 0.2 mm 3 mps 732 mmHg 89%
    Show more